星链-1337 (STARLINK-1337 )

导读 | 星芒AI

STARLINK-1337 是 SpaceX Starlink 卫星互联网项目中的第 1337 颗卫星,属于低轨卫星群,旨在为全球用户提供高速互联网服务。该卫星于 2023 年发射,运行在约 550 公里的轨道高度,采用先进通信技术,支持宽带数据传输。Starlink 项目致力于改善偏远地区网络覆盖,降低延迟,提高连接稳定性。STARLINK-1337 的部署进一步增强了 Starlink 网络的容量与可靠性,为全球用户带来更优质的互联网体验。

基本信息
目录编号:
45582
目录名称:
STARLINK-1337
国际标识:
2020-025BD
轨道中心:
EARTH
卫星名称:
星链-1337
卫星全名:
星链-1337 (STARLINK-1337 )
卫星状态:
在轨 (已飞行2064 天)
发射日期:
2020-04-22 UTC
国别 :
美国 (US)
星等 :
--
轨道信息
数据来源 国际轨道数据 AOE轨道数据
星历时间 2025-12-15T08:38:48+0800
1天前
查看轨道信息
2025-12-10T06:00:00+0800
6天前
查看轨道信息
半长轴 6925.36km 6925.326km
偏心率 0.0001159 0.0001339
轨道倾角 53.055° 53.055°
近地点辐角 104.105° 112.288°
升交点赤经 96.685° 119.627°
平近点角 256.007° 239.381°
近地点 546.422km 546.263km
远地点 548.028km 548.119km
周期 95.592分钟 95.592分钟
每日圈数 15.063963 15.064076
详细信息
固有亮度:
5
最大亮度:
2.5
卫星平台:
Starlink V1.0
覆盖范围:
全球
运营商:
太空探索技术公司
运营商所在国:
美国
制造商(研发单位):
太空探索技术公司
制造商所在国:
美国
使用方式:
暂无
卫星简介
星链(Starlink)计划是由太空探索技术公司(SpaceX)提出的一个巨型低轨卫星互联网星座项目,计划在2019年至2024年间在太空搭建由约1.2万颗卫星组成的“星链”网络,其中1584颗将部署在地球上空550千米处的近地轨道,并从2020年开始工作。该卫星仍在工作。
2D轨道图
3D轨道图
轨道高度分析图
轨道倾角分析图
轨道综合分析图
查看轨道综合分析图